When you browse on this site, cookies collect data to enhance your experience and personalize the content and advertising you see.
Visit our Privacy Policy to learn more. By continuing to use the site, you agree to this use of cookies and data.
  • en Suisse
  • Liste des pays
  • À 7 jours
  • Température de l'eau
  • Carte satellitaire
  • Carte météo
  • Widgets météo
  • user-avatar
    Se connecter

    Météo par heure à Xuanzhou

    Ce jour, 24 Juillet, Mercredi

    Heure Température Précipitation Vent Pression Humidité
    00:00 +29°C° 0 mm 2 m/s 750 mmHg 86%
    01:00 +29°C° 0 mm 2 m/s 750 mmHg 87%
    02:00 +29°C° 0 mm 2 m/s 750 mmHg 86%
    03:00 +28°C° 0 mm 2 m/s 750 mmHg 86%
    04:00 +28°C° 0 mm 2 m/s 750 mmHg 87%
    05:00 +28°C° 0 mm 2 m/s 750 mmHg 87%
    06:00 +29°C° 0 mm 2 m/s 750 mmHg 84%
    07:00 +30°C° 0 mm 2 m/s 750 mmHg 80%
    08:00 +32°C° 0 mm 2 m/s 751 mmHg 77%
    09:00 +34°C° 0 mm 2 m/s 751 mmHg 71%
    10:00 +35°C° 0 mm 3 m/s 751 mmHg 66%
    11:00 +37°C° 0 mm 3 m/s 751 mmHg 60%
    12:00 +37°C° 0 mm 3 m/s 750 mmHg 59%
    13:00 +38°C° 0 mm 3 m/s 750 mmHg 57%
    14:00 +39°C° 0 mm 3 m/s 750 mmHg 55%
    15:00 +38°C° 0.1 mm 3 m/s 750 mmHg 59%
    16:00 +37°C° 0.1 mm 2 m/s 750 mmHg 63%
    17:00 +37°C° 0.1 mm 2 m/s 749 mmHg 67%
    18:00 +35°C° 0.4 mm 2 m/s 750 mmHg 71%
    19:00 +33°C° 0.4 mm 1 m/s 750 mmHg 75%
    20:00 +29°C° 0.4 mm 0 m/s 750 mmHg 80%
    21:00 +31°C° 0.3 mm 1 m/s 751 mmHg 81%
    22:00 +31°C° 0.3 mm 1 m/s 751 mmHg 82%
    23:00 +30°C° 0.3 mm 1 m/s 751 mmHg 83%

    Demain, 25 Juillet, Jeudi

    Heure Température Précipitation Vent Pression Humidité
    00:00 +30°C° 0 mm 1 m/s 751 mmHg 84%
    01:00 +30°C° 0 mm 2 m/s 751 mmHg 85%
    02:00 +29°C° 0 mm 2 m/s 751 mmHg 86%
    03:00 +29°C° 0 mm 2 m/s 751 mmHg 86%
    04:00 +29°C° 0 mm 1 m/s 751 mmHg 86%
    05:00 +29°C° 0 mm 1 m/s 751 mmHg 86%
    06:00 +30°C° 0 mm 1 m/s 751 mmHg 82%
    07:00 +31°C° 0 mm 1 m/s 752 mmHg 78%
    08:00 +33°C° 0 mm 1 m/s 752 mmHg 73%
    09:00 +35°C° 0.4 mm 2 m/s 752 mmHg 69%
    10:00 +36°C° 0.4 mm 3 m/s 752 mmHg 65%
    11:00 +37°C° 0.4 mm 3 m/s 752 mmHg 61%
    12:00 +38°C° 0.7 mm 3 m/s 751 mmHg 59%
    13:00 +38°C° 0.7 mm 3 m/s 751 mmHg 56%
    14:00 +39°C° 0.7 mm 3 m/s 750 mmHg 54%
    15:00 +39°C° 0.1 mm 2 m/s 750 mmHg 57%
    16:00 +38°C° 0.1 mm 2 m/s 750 mmHg 61%
    17:00 +38°C° 0.1 mm 2 m/s 749 mmHg 64%
    18:00 +35°C° 0.1 mm 1 m/s 750 mmHg 68%
    19:00 +33°C° 0.1 mm 1 m/s 750 mmHg 71%
    20:00 +32°C° 0.1 mm 1 m/s 750 mmHg 75%
    21:00 +31°C° 0 mm 1 m/s 750 mmHg 76%
    22:00 +31°C° 0 mm 1 m/s 750 mmHg 78%
    23:00 +30°C° 0 mm 1 m/s 751 mmHg 79%

    Après-demain, 26 Juillet, Vendredi

    Heure Température Précipitation Vent Pression Humidité
    00:00 +30°C° 0 mm 1 m/s 750 mmHg 80%
    01:00 +30°C° 0 mm 1 m/s 750 mmHg 81%
    02:00 +29°C° 0 mm 1 m/s 750 mmHg 82%
    03:00 +29°C° 0 mm 1 m/s 750 mmHg 82%
    04:00 +29°C° 0 mm 1 m/s 750 mmHg 83%
    05:00 +29°C° 0 mm 2 m/s 750 mmHg 84%
    06:00 +30°C° 0 mm 2 m/s 750 mmHg 80%
    07:00 +32°C° 0 mm 2 m/s 750 mmHg 77%
    08:00 +34°C° 0 mm 2 m/s 750 mmHg 74%
    09:00 +35°C° 1 mm 2 m/s 750 mmHg 70%
    10:00 +37°C° 1 mm 3 m/s 750 mmHg 65%
    11:00 +38°C° 1 mm 3 m/s 750 mmHg 60%
    12:00 +39°C° 0.7 mm 3 m/s 750 mmHg 58%
    13:00 +39°C° 0.7 mm 2 m/s 749 mmHg 55%
    14:00 +40°C° 0.7 mm 2 m/s 749 mmHg 53%
    15:00 +39°C° 0.6 mm 2 m/s 748 mmHg 58%
    16:00 +37°C° 0.6 mm 1 m/s 748 mmHg 63%
    17:00 +36°C° 0.6 mm 1 m/s 748 mmHg 68%
    18:00 +35°C° 0.4 mm 1 m/s 748 mmHg 71%
    19:00 +33°C° 0.4 mm 1 m/s 749 mmHg 75%
    20:00 +32°C° 0.4 mm 1 m/s 749 mmHg 78%
    21:00 +31°C° 0 mm 1 m/s 749 mmHg 79%
    22:00 +31°C° 0 mm 1 m/s 749 mmHg 80%
    23:00 +31°C° 0 mm 1 m/s 749 mmHg 82%

    27 Juillet, Samedi

    Heure Température Précipitation Vent Pression Humidité
    00:00 +30°C° 0 mm 1 m/s 749 mmHg 82%
    01:00 +30°C° 0 mm 1 m/s 749 mmHg 83%
    02:00 +30°C° 0 mm 1 m/s 748 mmHg 83%
    03:00 +30°C° 0 mm 1 m/s 749 mmHg 84%
    04:00 +29°C° 0 mm 1 m/s 749 mmHg 84%
    05:00 +29°C° 0 mm 2 m/s 749 mmHg 84%
    06:00 +31°C° 0.2 mm 2 m/s 749 mmHg 81%
    07:00 +32°C° 0.2 mm 2 m/s 750 mmHg 78%
    08:00 +34°C° 0.2 mm 2 m/s 750 mmHg 75%
    09:00 +36°C° 0.2 mm 2 m/s 750 mmHg 69%
    10:00 +37°C° 0.2 mm 3 m/s 750 mmHg 64%
    11:00 +38°C° 0.2 mm 3 m/s 750 mmHg 59%
    12:00 +38°C° 1.3 mm 3 m/s 750 mmHg 59%
    13:00 +38°C° 1.3 mm 2 m/s 749 mmHg 60%
    14:00 +38°C° 1.3 mm 2 m/s 749 mmHg 60%
    15:00 +36°C° 1.3 mm 2 m/s 749 mmHg 68%
    16:00 +34°C° 1.3 mm 2 m/s 749 mmHg 77%
    17:00 +32°C° 1.3 mm 2 m/s 749 mmHg 85%
    18:00 +31°C° 0 mm 3 m/s 749 mmHg 85%
    19:00 +31°C° 0 mm 3 m/s 749 mmHg 84%
    20:00 +30°C° 0 mm 4 m/s 749 mmHg 84%
    21:00 +30°C° 0 mm 3 m/s 750 mmHg 83%
    22:00 +30°C° 0 mm 2 m/s 750 mmHg 83%
    23:00 +30°C° 0 mm 1 m/s 750 mmHg 83%

    28 Juillet, Dimanche

    Heure Température Précipitation Vent Pression Humidité
    00:00 +30°C° 0.2 mm 1 m/s 750 mmHg 84%
    01:00 +30°C° 0.2 mm 1 m/s 750 mmHg 85%
    02:00 +29°C° 0.2 mm 2 m/s 749 mmHg 86%
    03:00 +29°C° 0.2 mm 2 m/s 750 mmHg 86%
    04:00 +29°C° 0.2 mm 2 m/s 750 mmHg 86%
    05:00 +29°C° 0.2 mm 2 m/s 750 mmHg 85%
    06:00 +30°C° 0 mm 2 m/s 750 mmHg 83%
    07:00 +32°C° 0 mm 2 m/s 751 mmHg 80%
    08:00 +34°C° 0 mm 2 m/s 751 mmHg 77%
    09:00 +36°C° 0 mm 2 m/s 751 mmHg 70%
    10:00 +37°C° 0 mm 3 m/s 751 mmHg 63%
    11:00 +39°C° 0 mm 3 m/s 751 mmHg 57%
    12:00 +40°C° 0 mm 3 m/s 751 mmHg 55%
    13:00 +40°C° 0 mm 3 m/s 750 mmHg 53%
    14:00 +42°C° 0 mm 3 m/s 750 mmHg 50%
    15:00 +40°C° 0 mm 3 m/s 750 mmHg 54%
    16:00 +40°C° 0 mm 2 m/s 749 mmHg 58%
    17:00 +39°C° 0 mm 2 m/s 749 mmHg 62%
    18:00 +37°C° 0.1 mm 2 m/s 750 mmHg 66%
    19:00 +35°C° 0.1 mm 2 m/s 750 mmHg 70%
    20:00 +32°C° 0.1 mm 2 m/s 750 mmHg 74%
    21:00 +32°C° 0 mm 1 m/s 750 mmHg 75%
    22:00 +31°C° 0 mm 1 m/s 750 mmHg 76%
    23:00 +31°C° 0 mm 1 m/s 750 mmHg 77%

    29 Juillet, Lundi

    Heure Température Précipitation Vent Pression Humidité
    00:00 +31°C° 0 mm 1 m/s 750 mmHg 78%
    01:00 +30°C° 0 mm 1 m/s 750 mmHg 79%
    02:00 +30°C° 0 mm 1 m/s 750 mmHg 80%
    03:00 +30°C° 0 mm 1 m/s 750 mmHg 80%
    04:00 +30°C° 0 mm 1 m/s 750 mmHg 80%
    05:00 +29°C° 0 mm 1 m/s 751 mmHg 80%
    06:00 +31°C° 0 mm 2 m/s 751 mmHg 77%
    07:00 +32°C° 0 mm 2 m/s 751 mmHg 75%
    08:00 +35°C° 0 mm 2 m/s 751 mmHg 72%
    09:00 +36°C° 0 mm 2 m/s 751 mmHg 66%
    10:00 +37°C° 0 mm 3 m/s 751 mmHg 60%
    11:00 +40°C° 0 mm 4 m/s 751 mmHg 55%
    12:00 +40°C° 0 mm 4 m/s 751 mmHg 53%
    13:00 +40°C° 0 mm 3 m/s 750 mmHg 50%
    14:00 +40°C° 0 mm 3 m/s 750 mmHg 48%
    15:00 +40°C° 0 mm 3 m/s 750 mmHg 51%
    16:00 +40°C° 0 mm 3 m/s 749 mmHg 54%
    17:00 +39°C° 0 mm 3 m/s 749 mmHg 57%
    18:00 +37°C° 0 mm 2 m/s 749 mmHg 60%
    19:00 +36°C° 0 mm 2 m/s 750 mmHg 63%
    20:00 +34°C° 0 mm 2 m/s 750 mmHg 66%
    21:00 +32°C° 0 mm 2 m/s 750 mmHg 68%
    22:00 +32°C° 0 mm 2 m/s 750 mmHg 70%
    23:00 +31°C° 0 mm 2 m/s 750 mmHg 71%
    Voir plus